Location: Unspecified
(33.9239°N, 118.0544°W)
Time: 01:42:24
(UTC-07:00)

Resurs 1-4 Rocket - Visible Passes

Search period start: 26 May 2016 00:00
Search period end: 05 June 2016 00:00
Orbit: 800 x 814 km, 98.4° (Epoch: 25 May)

Date Brightness Start Highest point End Pass type
(mag) Time Alt. Az. Time Alt. Az. Time Alt. Az.
26 May 4.5 02:24:21 10° ENE 02:26:46 13° E 02:28:38 11° ESE visible
26 May 2.2 04:01:41 10° N 04:06:56 62° WNW 04:09:44 27° SW visible
27 May 2.2 03:37:06 10° NNE 03:42:27 77° ESE 03:44:55 33° S visible
28 May 3.0 03:12:49 10° NNE 03:17:53 43° E 03:20:07 28° SSE visible
28 May 3.6 04:53:34 10° NNW 04:57:21 20° WNW 05:01:08 10° WSW visible
29 May 3.8 02:48:55 10° NE 02:53:14 25° E 02:55:18 20° SE visible
29 May 3.0 04:28:18 10° N 04:33:03 34° WNW 04:36:23 17° SW visible
30 May 4.4 02:25:50 10° ENE 02:28:30 14° E 02:30:30 12° ESE visible
30 May 2.2 04:03:25 10° N 04:08:39 59° WNW 04:11:35 26° SW visible
31 May 2.1 03:38:49 10° NNE 03:44:10 80° ESE 03:46:46 31° S visible
01 Jun 2.9 03:14:30 10° NNE 03:19:37 45° E 03:21:57 28° SSE visible
01 Jun 3.7 04:55:23 10° NNW 04:59:03 19° WNW 05:02:44 10° WSW visible
02 Jun 3.8 02:50:34 10° NE 02:54:58 26° E 02:57:08 20° SE visible
02 Jun 3.0 04:30:04 10° N 04:34:45 32° WNW 04:38:13 16° SW visible
03 Jun 4.4 02:27:22 10° ENE 02:30:15 15° E 02:32:19 12° ESE visible
03 Jun 2.3 04:05:09 10° N 04:10:22 56° WNW 04:13:24 24° SW visible
04 Jun 2.1 03:40:32 10° NNE 03:45:53 84° ESE 03:48:35 30° S visible
